Flag for Austria Weather past 2 weeks in Klagenfurt, Carinthia, Austria

Now
55 °F

Sleet. Cloudy.


Feels Like: 55 °F
Forecast: 53 / 68 °F
Wind: 2 mph from North

Location: Klagenfurt-Flughafen

Current Time: Sep 17, 2014 at 8:26:51 AM

Latest Report: Sep 17, 2014 at 7:50 AM


Visibility: 2 mi

Pressure: 30.12 "Hg

Humidity: 100%

Dew point: 55 °F

Location of KlagenfurtLocation

Historic Weather in Klagenfurt — Graph

°F

Klagenfurt temperature yesterday

Maximum temperature yesterday: 64 °F (at 1:20 PM)
Minimum temperature yesterday: 55 °F (at 2:50 AM)
Average temperature yesterday: 60 °F

Past Weeks' High & Low Weather Summary

 TemperatureHumidityPressure
High77 °F (Sep 8, 4:50 PM)100% (Sep 3, 12:50 AM)30.12 "Hg (Sep 3, 12:50 AM)
Low52 °F (Sep 3, 12:50 AM)47% (Sep 8, 4:50 PM)29.89 "Hg (Sep 12, 12:50 AM)
Average60 °F89%30.02 "Hg
* Reported Sep 2 6:20 AM — Sep 17 6:50 AM, Klagenfurt, Weather by CustomWeather, © 2014

Note: Actual official high and low records may vary slightly from our data, if they occured in-between our weather recording intervals... More about our weather records

Advertising

Klagenfurt weather history for previous 24 hours

 ConditionsComfort  
Time TempWeatherWind HumidityBarometerVisibility
6:50 AM
Sep 17
54 °FSleet. Overcast.1 mph100%30.09 "Hg3 mi
6:20 AM54 °FSleet. Overcast.1 mph100%30.09 "Hg3 mi
5:50 AM54 °FPartly cloudy.2 mph100%30.09 "Hg5 mi
5:20 AM54 °FFog.1 mph100%30.09 "Hg4 mi
4:50 AM54 °FPartly cloudy.1 mph100%30.09 "Hg5 mi
4:20 AM54 °FPassing clouds.1 mph100%30.09 "HgN/A
3:50 AM55 °FPassing clouds.2 mph94%30.09 "HgN/A
3:20 AM55 °FPassing clouds.2 mph94%30.09 "HgN/A
2:50 AM55 °FPassing clouds.2 mph94%30.09 "HgN/A
2:20 AM55 °FPassing clouds.2 mph94%30.09 "HgN/A
1:50 AM55 °FPartly cloudy.3 mph94%30.09 "HgN/A
1:20 AM55 °FPassing clouds.2 mph94%30.12 "HgN/A
12:50 AM55 °FOvercast.3 mph94%30.12 "HgN/A
12:20 AM55 °FOvercast.6 mph100%30.12 "HgN/A
11:50 PM
Sep 16
57 °FOvercast.3 mph94%30.12 "HgN/A
11:20 PM57 °FPartly cloudy.5 mph94%30.09 "HgN/A
10:50 PM57 °FPartly cloudy.5 mph94%30.12 "HgN/A
10:20 PM59 °FPartly cloudy.3 mph88%30.09 "HgN/A
9:50 PM59 °FPartly cloudy.1 mph88%30.09 "HgN/A
9:20 PM59 °FPassing clouds.2 mph88%30.09 "HgN/A
8:50 PM61 °FPassing clouds.3 mph77%30.09 "HgN/A
8:20 PM61 °FPartly cloudy.6 mph83%30.09 "HgN/A
7:50 PM59 °FBroken clouds.1 mph82%30.09 "HgN/A
7:20 PM61 °FPartly sunny.3 mph83%30.09 "HgN/A
6:50 PM63 °FPartly sunny.3 mph77%30.07 "HgN/A
6:20 PM63 °FPartly sunny.3 mph73%30.07 "HgN/A
5:50 PM64 °FPartly sunny.3 mph68%30.07 "HgN/A
5:20 PM64 °FPartly sunny.3 mph68%30.07 "HgN/A
4:50 PM64 °FPartly sunny.3 mph73%30.07 "HgN/A
4:20 PM64 °FBroken clouds.5 mph73%30.07 "HgN/A
3:50 PM64 °FBroken clouds.5 mph73%30.07 "HgN/A
3:20 PM64 °FBroken clouds.5 mph73%30.07 "HgN/A
2:50 PM64 °FBroken clouds.2 mph73%30.07 "HgN/A
2:20 PM64 °FBroken clouds.6 mph68%30.07 "HgN/A
1:20 PM64 °FPartly sunny.2 mph73%30.09 "HgN/A
12:50 PM63 °FPartly sunny.2 mph77%30.09 "HgN/A
12:20 PM63 °FBroken clouds.1 mph77%30.09 "HgN/A
11:50 AM61 °FBroken clouds.1 mph88%30.09 "HgN/A
11:20 AM61 °FBroken clouds.1 mph88%30.09 "HgN/A
10:50 AM61 °FBroken clouds.2 mph88%30.09 "HgN/A
10:20 AM59 °FPartly sunny.1 mph94%30.09 "HgN/A
9:50 AM59 °FBroken clouds.2 mph94%30.09 "Hg5 mi
9:20 AM59 °FPartly sunny.2 mph94%30.09 "Hg4 mi
8:50 AM59 °FPartly sunny.1 mph94%30.09 "Hg4 mi
8:20 AM59 °FPartly sunny.1 mph88%30.09 "Hg4 mi
Weather by CustomWeather, © 2014

See weather overviewHow to use our weather pages